Notices

What's New in latest Release from April 7th, 2021:

- Updated Glossary, including Speed of Maximum Gust, and Total Hourly Precipitation

- Updated national and regional climate services offices contacts and prices information

- Addition of station inventory lists for 1981-2010, 1971-2000, and 1961-1990 Normals.

If you haven't already, please take our survey and provide feedback about our website: https://eccc.sondage-survey.ca/f/LanguageSelection.aspx?s=442ca660-fcf1-47c0-95a9-59707d6fd709

Hourly Data Report for April 03, 2020

MIRAMICHI RCS
NEW BRUNSWICK
Current Station Operator: ECCC - MSC

47°00'34.000" N
65°27'54.000" W
33.00 m
8100989
71744
ACQ

Download Data

Hourly Data (April 2020)
Hourly Data Report for April 3, 2020
TIME
LST
Temp Definition
°C
Dew Point Definition
°C
Rel Hum Definition
%
Precip. Amount Definition
mm

Wind Dir Definition
10's deg

Wind Spd Definition
km/h
Visibility Definition
km
Stn Press Definition
kPa
Hmdx Definition


Wind Chill Definition


Weather Definition


00:00 3.6 1.8 88 LegendMM 6 42   100.83     LegendNANA
01:00 3.4 1.2 86 LegendMM 6 42   100.87     LegendNANA
02:00 3.3 0.7 83 LegendMM 5 42   100.91     LegendNANA
03:00 3.2 1.3 87 LegendMM 6 42   100.97     LegendNANA
04:00 2.2 0.9 91 LegendMM 6 46   101.00     LegendNANA
05:00 1.6 -0.1 89 LegendMM 6 37   101.07     LegendNANA
06:00 1.4 -0.2 89 LegendMM 6 36   101.17     LegendNANA
07:00 1.4 -0.3 89 LegendMM 6 38   101.26     LegendNANA
08:00 1.4 -0.5 87 LegendMM 6 41   101.31     LegendNANA
09:00 1.3 -0.6 87 LegendMM 6 37   101.41     LegendNANA
10:00 1.3 -0.5 88 LegendMM 6 35   101.51     LegendNANA
11:00 1.2 -0.6 88 LegendMM 6 31   101.57     LegendNANA
12:00 1.2 -0.9 86 LegendMM 6 40   101.56     LegendNANA
13:00 1.2 -1.2 84 LegendMM 6 41   101.60     LegendNANA
14:00 1.3 -1.4 83 LegendMM 6 41   101.62     LegendNANA
15:00 1.2 -1.7 81 LegendMM 6 35   101.66     LegendNANA
16:00 1.3 -1.7 81 LegendMM 6 32   101.69     LegendNANA
17:00 1.1 -1.8 81 LegendMM 5 24   101.72     LegendNANA
18:00 0.5 -2.0 83 LegendMM 5 22   101.75     LegendNANA
19:00 0.0 -2.3 84 LegendMM 5 22   101.76   -6 LegendNANA
20:00 -0.1 -2.4 85 LegendMM 5 19   101.81   -5 LegendNANA
21:00 -0.6 -2.2 89 LegendMM 5 19   101.82   -6 LegendNANA
22:00 -0.5 -2.3 88 LegendMM 4 15   101.82   -5 LegendNANA
23:00 -0.4 -2.5 86 LegendMM 4 14   101.79   -5 LegendNANA

Notes on Data Quality.

Legend

  • E = Estimated
  • M = Missing
  • NA = Not Available*
  • [empty] = Indicates an unobserved value
Date modified: